Flag Weather past 2 weeks in Cheongju, South Korea

Now
55 °F

Mostly cloudy.


Feels Like: 52 °F
Forecast: 40 / 53 °F
Wind: 14 mph from Southwest

Location: Chongju Ab

Current Time: Nov 28, 2014 at 9:20:58 PM

Latest Report: Nov 28, 2014 at 9:00 PM


Visibility: N/A

Pressure: 29.89 "Hg

Humidity: 82%

Dew point: 50 °F

Location of CheongjuLocation

Historic Weather in Cheongju — Graph

°F

Cheongju temperature yesterday

Maximum temperature yesterday: 59 °F (at 3:00 PM)
Minimum temperature yesterday: 34 °F (at 4:00 AM)
Average temperature yesterday: 44 °F

Past Weeks' High & Low Weather Summary

 TemperatureHumidityPressure
High59 °F (Nov 21, 2:00 PM)100% (Nov 18, 7:00 AM)30.45 "Hg (Nov 18, 7:00 AM)
Low21 °F (Nov 19, 6:00 AM)22% (Nov 16, 1:00 PM)29.86 "Hg (Nov 28, 2:00 PM)
Average42 °F73%30.23 "Hg
* Reported Nov 13 8:00 PM — Nov 28 8:00 PM, Cheongju, Weather by CustomWeather, © 2014

Note: Actual official high and low records may vary slightly from our data, if they occured in-between our weather recording intervals... More about our weather records

Advertising

Cheongju weather history for previous 24 hours

 ConditionsComfort  
Time TempWeatherWind HumidityBarometerVisibility
8:00 PM
Nov 28
55 °FLight rain. Mostly cloudy.13 mph82%29.86 "Hg5 mi
7:00 PM54 °FLight rain. Mostly cloudy.1 mph88%29.86 "Hg5 mi
6:00 PM52 °FLight rain. Mostly cloudy.1 mph88%29.86 "Hg4 mi
5:00 PM50 °FLight rain. Mostly cloudy.2 mph94%29.86 "Hg4 mi
4:00 PM52 °FLight rain. Mostly cloudy.1 mph88%29.86 "Hg4 mi
3:00 PM52 °FLight rain. More clouds than sun.2 mph88%29.86 "Hg4 mi
2:00 PM50 °FLight rain. Overcast.3 mph94%29.86 "Hg4 mi
1:00 PM52 °FLight rain. Mostly cloudy.3 mph88%29.89 "Hg4 mi
12:00 PM50 °FLight rain. Mostly cloudy.2 mph94%29.92 "Hg4 mi
11:00 AM52 °FLight rain. Mostly cloudy.5 mph77%29.95 "Hg4 mi
10:00 AM52 °FLight rain. Fog.6 mph72%29.98 "Hg3 mi
9:00 AM43 °FFog.1 mph87%30.04 "Hg3 mi
8:00 AM41 °FFog.2 mph93%30.07 "Hg3 mi
7:00 AM41 °FFog.2 mph87%30.09 "Hg3 mi
6:00 AM41 °FFog.3 mph87%30.09 "Hg3 mi
5:00 AM39 °FFog.5 mph93%30.09 "Hg3 mi
4:00 AM39 °FFog.3 mph87%30.12 "Hg3 mi
3:00 AM34 °FFog.3 mph93%30.15 "Hg3 mi
2:00 AM37 °FFog.2 mph93%30.16 "Hg4 mi
1:00 AM37 °FFog.3 mph93%30.16 "Hg4 mi
12:00 AM36 °FFog.1 mph93%30.17 "Hg5 mi
11:00 PM
Nov 27
37 °FFog.2 mph93%30.18 "Hg5 mi
10:00 PM41 °FClear.1 mph87%30.18 "Hg5 mi
9:00 PM39 °FClear.3 mph93%30.18 "Hg5 mi
Weather by CustomWeather, © 2014

See weather overviewHow to use our weather pages